• In Uzbekistan
  • List of Countries
  • For 7 days
  • Water Temperature
  • Satellite Maps
  • Weather Map
  • Weather Widgets
  • user-avatar
    Login

    Hourly Weather Mingachevir

    Today, 26 July, Wednesday

    Time Temperature Precipitation Wind Pressure Humidity
    00:00 +29°C° 0.2 mm 2 mps 747 mmHg 49%
    01:00 +28°C° 0.4 mm 2 mps 747 mmHg 51%
    02:00 +28°C° 0.4 mm 2 mps 747 mmHg 53%
    03:00 +27°C° 0.4 mm 1 mps 747 mmHg 54%
    04:00 +27°C° 0 mm 1 mps 747 mmHg 53%
    05:00 +28°C° 0 mm 1 mps 747 mmHg 52%
    06:00 +28°C° 0 mm 1 mps 747 mmHg 50%
    07:00 +30°C° 0 mm 2 mps 747 mmHg 46%
    08:00 +31°C° 0 mm 2 mps 747 mmHg 42%
    09:00 +34°C° 0 mm 2 mps 747 mmHg 38%
    10:00 +35°C° 0 mm 2 mps 747 mmHg 35%
    11:00 +36°C° 0 mm 2 mps 746 mmHg 33%
    12:00 +38°C° 0 mm 2 mps 746 mmHg 31%
    13:00 +38°C° 0 mm 2 mps 746 mmHg 30%
    14:00 +39°C° 0 mm 2 mps 746 mmHg 28%
    15:00 +40°C° 0 mm 2 mps 745 mmHg 27%
    16:00 +39°C° 0.1 mm 3 mps 746 mmHg 28%
    17:00 +39°C° 0.1 mm 3 mps 746 mmHg 29%
    18:00 +39°C° 0.1 mm 3 mps 746 mmHg 30%
    19:00 +36°C° 0.1 mm 3 mps 746 mmHg 34%
    20:00 +34°C° 0.1 mm 4 mps 747 mmHg 39%
    21:00 +32°C° 0.1 mm 4 mps 748 mmHg 43%
    22:00 +30°C° 0 mm 4 mps 748 mmHg 45%
    23:00 +30°C° 0 mm 3 mps 748 mmHg 47%

    Tomorrow, 27 July, Thursday

    Time Temperature Precipitation Wind Pressure Humidity
    00:00 +29°C° 0 mm 3 mps 749 mmHg 49%
    01:00 +29°C° 0.1 mm 2 mps 749 mmHg 50%
    02:00 +28°C° 0.1 mm 2 mps 749 mmHg 51%
    03:00 +28°C° 0.1 mm 1 mps 749 mmHg 52%
    04:00 +28°C° 0 mm 1 mps 749 mmHg 51%
    05:00 +28°C° 0 mm 1 mps 749 mmHg 51%
    06:00 +29°C° 0 mm 1 mps 749 mmHg 50%
    07:00 +30°C° 0 mm 1 mps 749 mmHg 45%
    08:00 +32°C° 0 mm 1 mps 749 mmHg 40%
    09:00 +34°C° 0 mm 1 mps 749 mmHg 35%
    10:00 +36°C° 0 mm 2 mps 749 mmHg 32%
    11:00 +37°C° 0 mm 2 mps 749 mmHg 30%
    12:00 +38°C° 0 mm 2 mps 748 mmHg 27%
    13:00 +39°C° 0 mm 3 mps 748 mmHg 26%
    14:00 +40°C° 0 mm 3 mps 748 mmHg 25%
    15:00 +42°C° 0 mm 3 mps 747 mmHg 23%
    16:00 +42°C° 0 mm 3 mps 747 mmHg 24%
    17:00 +40°C° 0 mm 3 mps 747 mmHg 24%
    18:00 +40°C° 0 mm 3 mps 747 mmHg 25%
    19:00 +38°C° 0 mm 3 mps 748 mmHg 28%
    20:00 +36°C° 0 mm 4 mps 748 mmHg 31%
    21:00 +34°C° 0 mm 4 mps 749 mmHg 33%
    22:00 +33°C° 0 mm 3 mps 749 mmHg 35%
    23:00 +31°C° 0 mm 3 mps 749 mmHg 37%

    Day after tomorrow, 28 July, Friday

    Time Temperature Precipitation Wind Pressure Humidity
    00:00 +30°C° 0 mm 3 mps 749 mmHg 38%
    01:00 +30°C° 0 mm 2 mps 749 mmHg 39%
    02:00 +29°C° 0 mm 2 mps 749 mmHg 40%
    03:00 +29°C° 0 mm 1 mps 749 mmHg 41%
    04:00 +29°C° 0 mm 1 mps 749 mmHg 40%
    05:00 +30°C° 0 mm 1 mps 749 mmHg 40%
    06:00 +30°C° 0 mm 1 mps 749 mmHg 40%
    07:00 +32°C° 0 mm 1 mps 749 mmHg 36%
    08:00 +35°C° 0 mm 2 mps 749 mmHg 33%
    09:00 +36°C° 0 mm 2 mps 749 mmHg 29%
    10:00 +38°C° 0 mm 2 mps 748 mmHg 27%
    11:00 +39°C° 0 mm 2 mps 748 mmHg 25%
    12:00 +41°C° 0 mm 1 mps 747 mmHg 23%
    13:00 +41°C° 0 mm 1 mps 747 mmHg 22%
    14:00 +42°C° 0 mm 1 mps 746 mmHg 21%
    15:00 +43°C° 0 mm 2 mps 746 mmHg 20%
    16:00 +42°C° 0 mm 1 mps 746 mmHg 21%
    17:00 +42°C° 0 mm 1 mps 746 mmHg 21%
    18:00 +42°C° 0 mm 1 mps 746 mmHg 22%
    19:00 +40°C° 0 mm 2 mps 746 mmHg 25%
    20:00 +37°C° 0 mm 2 mps 747 mmHg 27%
    21:00 +35°C° 0 mm 3 mps 747 mmHg 30%
    22:00 +34°C° 0 mm 3 mps 748 mmHg 32%
    23:00 +32°C° 0 mm 2 mps 748 mmHg 35%

    29 July, Saturday

    Time Temperature Precipitation Wind Pressure Humidity
    00:00 +31°C° 0 mm 2 mps 748 mmHg 37%
    01:00 +31°C° 0 mm 2 mps 748 mmHg 39%
    02:00 +30°C° 0 mm 1 mps 748 mmHg 40%
    03:00 +30°C° 0 mm 1 mps 748 mmHg 42%
    04:00 +30°C° 0 mm 1 mps 748 mmHg 40%
    05:00 +31°C° 0 mm 2 mps 748 mmHg 39%
    06:00 +31°C° 0 mm 2 mps 748 mmHg 37%
    07:00 +35°C° 0 mm 3 mps 748 mmHg 32%
    08:00 +37°C° 0 mm 3 mps 748 mmHg 26%
    09:00 +40°C° 0 mm 4 mps 748 mmHg 21%
    10:00 +42°C° 0 mm 4 mps 747 mmHg 19%
    11:00 +43°C° 0 mm 4 mps 747 mmHg 17%
    12:00 +44°C° 0 mm 4 mps 747 mmHg 16%
    13:00 +45°C° 0 mm 4 mps 746 mmHg 15%
    14:00 +46°C° 0 mm 3 mps 746 mmHg 15%
    15:00 +47°C° 0 mm 3 mps 746 mmHg 14%
    16:00 +46°C° 0 mm 3 mps 746 mmHg 15%
    17:00 +45°C° 0 mm 3 mps 746 mmHg 15%
    18:00 +45°C° 0 mm 2 mps 746 mmHg 16%
    19:00 +42°C° 0 mm 3 mps 747 mmHg 18%
    20:00 +39°C° 0 mm 3 mps 748 mmHg 20%
    21:00 +37°C° 0 mm 4 mps 749 mmHg 22%
    22:00 +36°C° 0 mm 4 mps 749 mmHg 27%
    23:00 +35°C° 0 mm 4 mps 750 mmHg 32%

    30 July, Sunday

    Time Temperature Precipitation Wind Pressure Humidity
    00:00 +34°C° 0 mm 4 mps 750 mmHg 37%
    01:00 +33°C° 0 mm 4 mps 750 mmHg 39%
    02:00 +33°C° 0 mm 5 mps 750 mmHg 40%
    03:00 +32°C° 0 mm 5 mps 751 mmHg 42%
    04:00 +32°C° 0 mm 5 mps 751 mmHg 42%
    05:00 +32°C° 0 mm 5 mps 751 mmHg 42%
    06:00 +32°C° 0 mm 5 mps 752 mmHg 42%
    07:00 +34°C° 0 mm 5 mps 752 mmHg 38%
    08:00 +36°C° 0 mm 5 mps 752 mmHg 34%
    09:00 +37°C° 0 mm 5 mps 752 mmHg 30%
    10:00 +38°C° 0 mm 4 mps 751 mmHg 27%
    11:00 +39°C° 0 mm 3 mps 751 mmHg 25%
    12:00 +41°C° 0 mm 2 mps 751 mmHg 23%
    13:00 +41°C° 0 mm 2 mps 751 mmHg 22%
    14:00 +42°C° 0 mm 2 mps 750 mmHg 22%
    15:00 +43°C° 0 mm 3 mps 750 mmHg 21%
    16:00 +43°C° 0 mm 4 mps 750 mmHg 24%
    17:00 +42°C° 0 mm 5 mps 751 mmHg 26%
    18:00 +41°C° 0 mm 7 mps 751 mmHg 29%
    19:00 +38°C° 0.1 mm 7 mps 751 mmHg 34%
    20:00 +35°C° 0.1 mm 7 mps 752 mmHg 40%
    21:00 +33°C° 0.1 mm 6 mps 753 mmHg 45%
    22:00 +32°C° 0.1 mm 6 mps 753 mmHg 46%
    23:00 +32°C° 0.1 mm 5 mps 754 mmHg 47%

    31 July, Monday

    Time Temperature Precipitation Wind Pressure Humidity
    00:00 +30°C° 0.1 mm 4 mps 754 mmHg 48%
    01:00 +30°C° 0.1 mm 3 mps 754 mmHg 49%
    02:00 +29°C° 0.1 mm 3 mps 754 mmHg 49%
    03:00 +29°C° 0.1 mm 3 mps 754 mmHg 50%
    04:00 +29°C° 0 mm 3 mps 755 mmHg 49%
    05:00 +29°C° 0 mm 3 mps 755 mmHg 49%
    06:00 +29°C° 0 mm 3 mps 755 mmHg 48%
    07:00 +31°C° 0 mm 3 mps 755 mmHg 43%
    08:00 +34°C° 0 mm 4 mps 755 mmHg 39%
    09:00 +35°C° 0 mm 4 mps 755 mmHg 34%
    10:00 +37°C° 0 mm 5 mps 755 mmHg 32%
    11:00 +39°C° 0 mm 5 mps 755 mmHg 30%
    12:00 +40°C° 0 mm 5 mps 754 mmHg 27%
    13:00 +40°C° 0 mm 5 mps 754 mmHg 27%
    14:00 +40°C° 0 mm 6 mps 754 mmHg 26%
    15:00 +41°C° 0 mm 6 mps 753 mmHg 25%
    16:00 +40°C° 0 mm 6 mps 753 mmHg 26%
    17:00 +39°C° 0 mm 7 mps 754 mmHg 27%
    18:00 +38°C° 0 mm 7 mps 754 mmHg 29%
    19:00 +35°C° 0 mm 7 mps 754 mmHg 33%
    20:00 +34°C° 0 mm 6 mps 755 mmHg 37%
    21:00 +32°C° 0 mm 6 mps 755 mmHg 41%
    22:00 +30°C° 0 mm 5 mps 756 mmHg 44%
    23:00 +29°C° 0 mm 4 mps 756 mmHg 46%
    Show more